Regional Weather Roundup
Issued by NWS

Home | Current Version | Previous Version | Graphics & Text | Print | Product List | Glossary On
Versions: 1 2 3 4 5 6 7 8 9 10 11 12 13 14 15 16 17 18 19 20 21 22 23 24 25 26 27 28 29 30 31 32 33 34 35 36 37 38 39 40 41 42 43 44 45 46 47 48 49 50
156
ASUS43 KDTX 210310
RWRMI
MICHIGAN HOURLY REGIONAL WEATHER ROUNDUP
NATIONAL WEATHER SERVICE DETROIT/PONTIAC MI
ISSUED BY NATIONAL WEATHER SERVICE GRAND RAPIDS MI
1000 PM EST MON FEB 20 2017

NOTE: "FAIR" INDICATES FEW OR NO CLOUDS BELOW 12,000 FEET WITH NO
SIGNIFICANT WEATHER AND/OR OBSTRUCTION TO VISIBILITY.

MIZ047>049-052>055-059>063-066>070-074>076-081>083-210400-
SOUTHEAST LOWER MICHIGAN

CITY           SKY/WX    TMP DP  RH WIND       PRES   REMARKS
ADRIAN         CLOUDY    36  31  82 SE9       30.16S WCI  29
ALMA           CLOUDY    43  32  64 SE7G16    30.10F
ANN ARBOR      CLOUDY    38  29  70 E8        30.15F WCI  32
BAD AXE        PTCLDY    38  32  78 SE7       30.15F WCI  33
DETROIT CITY   CLOUDY    38  29  70 SE10      30.17F WCI  31
DETROIT        CLOUDY    38  28  67 E6        30.17F WCI  33
FLINT          CLOUDY    40  30  67 SE10      30.14S WCI  33
GROSSE ILE     CLOUDY    37  29  71 CALM      30.16F
HILLSDALE      CLOUDY    37  32  81 E9        30.11F WCI  31
HOWELL         CLOUDY    40  32  73 SE9       30.13S WCI  34

CITY           SKY/WX    TMP DP  RH WIND       PRES   REMARKS
JACKSON        CLOUDY    41  29  62 SE14      30.12S
LANSING        CLOUDY    45  30  55 SE14      30.11S
MASON          CLOUDY    42  33  71 SE6       30.12S
MONROE         CLOUDY    37  32  84 E8        30.15F WCI  30
MT. CLEMENS    CLOUDY    37  30  74 SE6       30.16F WCI  32
PONTIAC        CLOUDY    39  26  59 SE10      30.14F WCI  32
PORT HOPE        N/A     39  31  72 SE16G25   30.14F WCI  30
PORT HURON     CLOUDY    39  28  65 SE6       30.17F WCI  35
TRI CITIES     CLOUDY    42  33  70 SE13      30.12F
YPSILANTI      CLOUDY    38  30  73 E7        30.16F WCI  33
$$
MIZ043>046-050>051-056>058-064>065-071>073-077>080-210400-
SOUTHWEST LOWER MICHIGAN

CITY           SKY/WX    TMP DP  RH WIND       PRES   REMARKS
BATTLE CREEK   CLOUDY    46  32  58 SE12      30.08F
BENTON HARBOR  CLOUDY    56  40  55 SE15G22   29.99F
BIG RAPIDS     CLOUDY    45  34  65 SE9       30.02F
COLDWATER      CLOUDY    43  31  64 SE12      30.10F
HOLLAND        CLOUDY    53  37  54 SE14      29.99F
GRAND RAPIDS   CLOUDY    49  33  54 SE14      30.03F
KALAMAZOO      CLOUDY    48  32  53 SE15      30.06F
MARSHALL       CLOUDY    43  31  63 E6        30.09F
MOUNT PLEASANT CLOUDY    43  32  65 SE9       30.08F
MUSKEGON       CLOUDY    55  36  48 SE15G24   29.99S
STURGIS        CLOUDY    45  34  65 SE16      30.06F
$$
MIZ016>042-210400-
NORTHERN LOWER MICHIGAN

CITY           SKY/WX    TMP DP  RH WIND       PRES   REMARKS
ALPENA         PTCLDY    35  31  85 SE9       30.14F WCI  28
BEAVER ISLAND  CLOUDY    40  32  75 E13       29.98F WCI  32
BELLAIRE       CLOUDY    45  33  62 S13G20    29.99F
CADILLAC       CLOUDY    43  33  67 SE12      30.01F
CHARLEVOIX     CLOUDY    45  32  61 SE14G23   29.99F
GAYLORD        CLOUDY    39  30  70 S18G26    30.02F WCI  30
HOUGHTON LAKE  CLOUDY    39  31  72 SE12      30.07F WCI  32
MANISTEE       CLOUDY    50  35  56 SE10G17   29.95F
OSCODA         PTCLDY    37  32  81 S9        30.15S WCI  31
PELLSTON       CLOUDY    37  28  70 SE14      30.02F WCI  28
TRAVERSE CITY  CLOUDY    48  33  56 VRB7G23   29.96F
LUDINGTON      CLOUDY    53  37  54 SE12G22   29.94F
$$
MIZ007>008-015-210400-
EASTERN UPPER MICHIGAN

CITY           SKY/WX    TMP DP  RH WIND       PRES   REMARKS
KINROSS        PTCLDY    34  26  72 SE17      30.06F WCI  23
MACKINAC ISLAN MOCLDY    33  29  84 E14G25    30.03F WCI  24
NEWBERRY       CLOUDY    35  30  81 SE20      29.96F WCI  24
S. S. MARIE    PTCLDY    33  18  53 E13G23    30.08F WCI  24
$$
MIZ004>006-011>014-085-210400-
CENTRAL UPPER MICHIGAN

CITY           SKY/WX    TMP DP  RH WIND       PRES   REMARKS
MANISTIQUE     LGT SNOW  36  34  92 E16G24    29.92F WCI  26
ESCANABA       LGT RAIN  38  36  92 SE7       29.87F WCI  33
MENOMINEE      LGT RAIN  45  40  82 S15G22    29.84F
SAWYER-GWINN   CLOUDY    37  36  93 S21G26    29.82F WCI  27
$$
MIZ001>003-009>011-084-210400-
WESTERN UPPER MICHIGAN

CITY           SKY/WX    TMP DP  RH WIND       PRES   REMARKS
IRON MOUNTAIN  LGT RAIN  41  38  89 SE14G20   29.80F FOG
HOUGHTON       LGT RAIN  42  39  89 S14G22    29.70F
COPPER HARBOR    N/A     38  35  89 S14G23    29.74F WCI  30
IRONWOOD       LGT RAIN  49  47  93 S12G18    29.66F
$$

ABBREVIATIONS USED IN REMARKS
   TC - TEMPERATURE IN CELSIUS
  WCI - WIND CHILL INDEX
   HX - HEAT INDEX
  VSB - VISIBILITY





USA.gov is the U.S. government's official web portal to all federal, state and local government web resources and services.